User: anonymous   Login
Location: Unspecified
(0.0000°N, 0.0000°E)
Time: 01:48:50
(UTC+00:00)
Language:

ONEWEB-0624 - Orbit

View from above orbital plane
View from above orbital plane
View from above satellite
View from above satellite

Ground track
Ground track

The orbit is defined by the following mean orbital elements,

1 55165U          26145.33218854 +.00000000 +00000-0 +60041-3 0 00001
2 55165  87.8957 355.1347 0001890  88.1768 271.9577 13.12927867    06
Epoch (UTC): 25 May 2026 07:58:21
Eccentricity: 0.0001890
inclination: 87.8957°
perigee height: 1210 km
apogee height: 1213 km
right ascension of ascending node: 355.1347°
argument of perigee: 88.1768°
revolutions per day: 13.12927867
mean anomaly at epoch: 271.9577°

The dashed part of the orbit path shows where the satellite is in the earth's shadow,  

DLR